Location: Blankensee
(53.5126°N, 14.3055°E)
Time: 18:54:28
(UTC+00:00)

Cosmos 1680 Rocket - Pass Details

Date: 08 August 2020
Orbit: 760 x 780 km, 74.1° (Epoch: 20 September)

Event Time Altitude Azimuth Distance (km) Brightness Sun altitude
Rises 01:33:21 0° 331° (NNW) 3,249 7.1 -13.8°
Reaches altitude 10° 01:35:47 10° 326° (NW) 2,315 6.2 -13.6°
Maximum altitude 01:40:49 49° 253° (WSW) 985 3.7 -13.2°
Drops below altitude 10° 01:45:49 10° 179° (S) 2,291 5.5 -12.7°
Enters shadow 01:45:49 10° 179° (S) 2,292 5.5 -12.7°
